Tianhui-5 2-02

operational
NORAD ID: 60212 Int'l Des: 2024-126 Owner: GCDX Country: CN
LEOCIRCULARRETROGRADESSO

关于 Tianhui-5 2-02

正在加载描述...

实时位置

正在加载3D地球...

即将过境

高度历史

Altitude vs Time

uPlot chart will show altitude changes over time

两行轨道根数

1 60212U 24126B 26062.56133108 .00000662 00000-0 78889-4 0 9997
2 60212 97.8213 71.6261 0002086 95.5422 264.6033 14.87576418 90193
Epoch: Mar 3, 2026 • Age: 22 hours

当前状态

高度 616.2 km
速度 7.56 km/s
星下点 69.58°N, 79.16°W
发射日期 Jul 4, 2024
运行时间 1.6 years
类型 other

技术详情

分类 Payload
质量 1000.00 kg
干质量 1000.00 kg
总质量 1000.00 kg
长度 2.00 m
直径 2.00 m
跨度 14.00 m
形状 Box + 2 Pan
制造商 DFHZ
平台类型 CAST-2000
阶段状态 In Orbit
所有者/国家 GCDX/CN

大型星座

Loading constellations...